Regional Weather Roundup
Issued by NWS Jackson, KY

Home | Current Version | Previous Version | Graphics & Text | Print | Product List | Glossary On
Versions: 1 2 3 4 5 6 7 8 9 10 11 12 13 14 15 16 17 18 19 20 21 22 23 24 25 26 27 28 29 30 31 32 33 34 35 36 37 38 39 40 41 42 43 44 45 46 47 48 49 50
000
ASUS43 KJKL 271910
RWRJKL

EAST KENTUCKY HOURLY WEATHER ROUNDUP
NATIONAL WEATHER SERVICE JACKSON KY
300 PM EDT THU AUG 27 2015

NOTE: "FAIR" INDICATES FEW OR NO CLOUDS BELOW 12,000 FEET WITH
NO SIGNIFICANT WEATHER AND/OR OBSTRUCTIONS TO VISIBILITY.

* THESE REPORTS ARE NOT UNDER NWS QUALITY CONTROL AND MAY NOT
  REPORT WEATHER SUCH AS PRECIPITATION AND FOG.

KYZ079-080-083-085-087-088-110-112-115-119-120-272000
...EASTERN KENTUCKY...

CITY           SKY/WX    TMP DP  RH WIND       PRES   REMARKS
JACKSON        MOSUNNY   73  55  53 CALM      30.16F
LONDON         SUNNY     77  51  40 N7        30.14F
SOMERSET*      SUNNY     75  52  43 E6        30.13F
MONTICELLO*    SUNNY     78  57  48 E10       30.14F
MIDDLESBORO*   MOSUNNY   79  60  52 N8        30.12F
HARLAN APT*      N/A     75  55  50 MISG      30.13
HAZARD APT*    PTCLDY    75  57  53 N6        30.15F
BLACK MTN*       N/A     64  59  82 NW1         N/A
PIKEVILLE APT* MOSUNNY   72  55  56 CALM      30.16F
BIG SANDY*     MOCLDY    70  57  62 NE5       30.17F
MOREHEAD APT*  MOCLDY    73  54  49 NE9       30.17F
$$

KYZ035-036-041-042-044-050-067-078-099-272000
...CENTRAL KENTUCKY...

CITY           SKY/WX    TMP DP  RH WIND       PRES   REMARKS
MT STERLING*   PTSUNNY   73  54  49 E6        30.16F
FLEMING/MASON* CLOUDY    72  55  56 E3        30.17F
DANVILLE*      MOSUNNY   75  54  46 E10       30.15F
RICHMOND*      MOSUNNY   75  52  43 E10       30.13F
LEXINGTON      PTSUNNY   78  53  41 E13G18    30.14F
FRANKFORT      PTSUNNY   74  53  48 NE9       30.14F
$$

KYZ091>093-OHZ055-061-077-WVZ005-015-034-035-042-272000
...SOUTHERN OHIO/WEST VIRGINIA...

CITY           SKY/WX    TMP DP  RH WIND       PRES   REMARKS
COVINGTON      CLOUDY    74  55  51 VRB6      30.15F
COLUMBUS       MOSUNNY   74  53  48 CALM      30.15F
DAYTON         PTSUNNY   73  54  51 VRB3      30.16F
WILMINGTON     PTSUNNY   74  55  51 MISG      30.16F
HUNTINGTON     PTSUNNY   75  53  46 MISG      30.15F
CHARLESTON     PTSUNNY   73  55  53 N7        30.15F
PINEVILLE*     MOSUNNY   76  58  52 MISG      30.20S
BECKLEY        CLOUDY    72  53  51 E6        30.18F
BLUEFIELD      MOSUNNY   76  53  44 N7        30.18F
$$

VAZ002-007-008-TNZ017-027-036-066-071-272000
...SOUTHWEST VIRGINIA/EAST TENNESSEE...

CITY           SKY/WX    TMP DP  RH WIND       PRES   REMARKS
WISE*          MOSUNNY   73  54  49 CALM      30.19
JONESVILLE*    CLEAR     81  16   9 CALM      30.14F
ABINGDON*      PTSUNNY   79  54  41 CALM      30.13F
BRISTOL        MOSUNNY   81  58  45 W3        30.10F
KNOXVILLE      MOSUNNY   83  60  45 NE8       30.07F
OAK RIDGE      SUNNY     81  59  47 VRB5      30.10F
CROSSVILLE     PTSUNNY   76  58  53 VRB6      30.13F
NASHVILLE      MOSUNNY   81  52  36 E10       30.08F
$$

...KEY TO REMARKS...
VSB - VISIBILITY IN MILES
WCI - WIND CHILL INDEX
HX  - HEAT INDEX

$$


USA.gov is the U.S. government's official web portal to all federal, state and local government web resources and services.